TimeMST,TemperatureF,Dew PointF,Humidity,Sea Level PressureIn,VisibilityMPH,Wind Direction,Wind SpeedMPH,Gust SpeedMPH,PrecipitationIn,Events,Conditions,WindDirDegrees,DateUTC
12:56 AM,55.0,35.1,47,30.08,10.0,SW,5.8,-,N/A,,Clear,230,2012-11-17 07:56:00
1:56 AM,55.9,30.9,39,30.08,10.0,WSW,10.4,-,N/A,,Clear,240,2012-11-17 08:56:00
2:56 AM,57.0,27.0,32,30.06,10.0,West,6.9,-,N/A,,Partly Cloudy,260,2012-11-17 09:56:00
3:56 AM,53.1,34.0,48,30.06,10.0,South,8.1,-,N/A,,Partly Cloudy,170,2012-11-17 10:56:00
4:56 AM,55.0,33.1,43,30.06,10.0,West,4.6,-,N/A,,Overcast,280,2012-11-17 11:56:00
5:56 AM,55.0,30.9,40,30.07,10.0,West,4.6,-,N/A,,Overcast,260,2012-11-17 12:56:00
6:56 AM,55.9,36.0,47,30.09,10.0,SW,4.6,-,0.00,Rain,Light Rain,230,2012-11-17 13:56:00
7:56 AM,57.0,42.1,57,30.10,10.0,South,8.1,-,0.00,,Overcast,170,2012-11-17 14:56:00
8:56 AM,57.9,42.1,56,30.13,10.0,NW,3.5,-,0.01,Rain,Light Rain,310,2012-11-17 15:56:00
9:56 AM,60.1,46.0,60,30.14,10.0,SSW,11.5,-,0.00,Rain,Light Rain,200,2012-11-17 16:56:00
10:56 AM,66.9,45.0,45,30.12,10.0,SSW,8.1,-,0.00,,Partly Cloudy,200,2012-11-17 17:56:00
11:56 AM,66.0,42.1,42,30.09,10.0,ENE,5.8,-,N/A,,Mostly Cloudy,70,2012-11-17 18:56:00
12:56 PM,68.0,39.9,36,30.05,10.0,Variable,4.6,-,N/A,,Scattered Clouds,0,2012-11-17 19:56:00
1:56 PM,70.0,37.9,31,30.03,10.0,ESE,4.6,-,N/A,,Mostly Cloudy,120,2012-11-17 20:56:00
2:55 PM,71.6,24.8,17,30.01,10.0,SW,12.7,17.3,N/A,,Overcast,220,2012-11-17 21:55:00
3:55 PM,69.8,39.2,33,30.02,10.0,SSW,15.0,-,N/A,,Overcast,210,2012-11-17 22:55:00
4:18 PM,68.0,39.2,35,30.15,10.0,WSW,12.7,-,N/A,Rain,Light Rain Showers,240,2012-11-17 23:18:00
4:56 PM,64.9,42.1,43,30.04,10.0,West,11.5,-,0.00,,Overcast,260,2012-11-17 23:56:00
5:56 PM,64.9,39.0,39,30.05,10.0,WSW,18.4,-,N/A,,Partly Cloudy,240,2012-11-18 00:56:00
6:56 PM,60.1,46.0,60,30.08,10.0,West,12.7,-,0.00,Rain,Light Rain,260,2012-11-18 01:56:00
7:56 PM,57.9,48.0,70,30.06,8.0,West,9.2,-,0.01,Rain,Light Rain,280,2012-11-18 02:56:00
8:56 PM,55.0,48.9,80,30.09,10.0,West,9.2,-,0.01,,Overcast,270,2012-11-18 03:56:00
9:56 PM,55.0,48.9,80,30.09,10.0,West,5.8,-,N/A,,Overcast,260,2012-11-18 04:56:00
10:56 PM,55.0,48.9,80,30.09,10.0,West,5.8,-,0.01,Rain,Light Rain,270,2012-11-18 05:56:00
11:56 PM,52.0,48.9,89,30.10,10.0,NNW,6.9,-,0.00,Rain,Light Rain,330,2012-11-18 06:56:00